When you browse on this site, cookies collect data to enhance your experience and personalize the content and advertising you see.
Visit our Privacy Policy to learn more. By continuing to use the site, you agree to this use of cookies and data.
  • In Sweden
  • List of Countries
  • For 7 days
  • Water Temperature
  • Satellite Maps
  • Weather Map
  • Weather Widgets
  • user-avatar
    Login

    Hourly Weather Kaprun

    Today, 23 March, Saturday

    Time Temperature Precipitation Wind Pressure Humidity
    00:00 -1°C° 0 mm 1 mps 601 mmHg 74%
    01:00 -1°C° 0 mm 1 mps 601 mmHg 73%
    02:00 -1°C° 0 mm 1 mps 601 mmHg 72%
    03:00 -1°C° 0 mm 1 mps 600 mmHg 72%
    04:00 -1°C° 0 mm 1 mps 600 mmHg 71%
    05:00 -1°C° 0 mm 1 mps 600 mmHg 70%
    06:00 -1°C° 0 mm 1 mps 600 mmHg 70%
    07:00 -1°C° 0 mm 1 mps 601 mmHg 69%
    08:00 +1°C° 0 mm 1 mps 601 mmHg 72%
    09:00 +3°C° 0 mm 1 mps 602 mmHg 74%
    10:00 +4°C° 0 mm 0 mps 603 mmHg 77%
    11:00 +5°C° 0 mm 0 mps 603 mmHg 76%
    12:00 +7°C° 0 mm 1 mps 603 mmHg 75%
    13:00 +7°C° 0 mm 1 mps 603 mmHg 74%
    14:00 +7°C° 0 mm 1 mps 602 mmHg 76%
    15:00 +7°C° 0 mm 1 mps 602 mmHg 78%
    16:00 +7°C° 0 mm 1 mps 602 mmHg 81%
    17:00 +4°C° 0 mm 1 mps 601 mmHg 84%
    18:00 +2°C° 0 mm 1 mps 600 mmHg 86%
    19:00 0°C° 0 mm 1 mps 599 mmHg 89%
    20:00 0°C° 0 mm 1 mps 599 mmHg 89%
    21:00 0°C° 0 mm 1 mps 600 mmHg 89%
    22:00 0°C° 0 mm 1 mps 600 mmHg 88%
    23:00 -1°C° 0 mm 1 mps 600 mmHg 87%

    Tomorrow, 24 March, Sunday

    Time Temperature Precipitation Wind Pressure Humidity
    00:00 -1°C° 0 mm 1 mps 600 mmHg 85%
    01:00 -1°C° 0 mm 1 mps 600 mmHg 84%
    02:00 -1°C° 0 mm 1 mps 599 mmHg 82%
    03:00 -1°C° 0 mm 1 mps 599 mmHg 80%
    04:00 -3°C° 0 mm 2 mps 599 mmHg 78%
    05:00 -3°C° 0 mm 2 mps 599 mmHg 76%
    06:00 -3°C° 0 mm 2 mps 599 mmHg 74%
    07:00 -2°C° 0 mm 2 mps 599 mmHg 72%
    08:00 +2°C° 0 mm 1 mps 600 mmHg 71%
    09:00 +4°C° 0 mm 1 mps 600 mmHg 70%
    10:00 +5°C° 0 mm 0 mps 601 mmHg 69%
    11:00 +7°C° 0 mm 1 mps 601 mmHg 68%
    12:00 +7°C° 0 mm 1 mps 601 mmHg 66%
    13:00 +8°C° 0 mm 1 mps 601 mmHg 64%
    14:00 +8°C° 0 mm 1 mps 600 mmHg 67%
    15:00 +7°C° 0 mm 1 mps 600 mmHg 70%
    16:00 +6°C° 0 mm 2 mps 599 mmHg 74%
    17:00 +4°C° 0 mm 2 mps 598 mmHg 81%
    18:00 +3°C° 0 mm 1 mps 598 mmHg 88%
    19:00 +1°C° 0 mm 1 mps 597 mmHg 95%
    20:00 +1°C° 0.1 mm 1 mps 597 mmHg 96%
    21:00 +1°C° 0.1 mm 2 mps 598 mmHg 96%
    22:00 +1°C° 0.1 mm 2 mps 598 mmHg 97%
    23:00 -1°C° 0.1 mm 2 mps 598 mmHg 97%

    Day after tomorrow, 25 March, Monday

    Time Temperature Precipitation Wind Pressure Humidity
    00:00 +1°C° 0.1 mm 1 mps 598 mmHg 98%
    01:00 0°C° 0.1 mm 1 mps 597 mmHg 98%
    02:00 0°C° 0 mm 1 mps 597 mmHg 97%
    03:00 -1°C° 0 mm 1 mps 596 mmHg 97%
    04:00 -1°C° 0 mm 1 mps 596 mmHg 97%
    05:00 -1°C° 0 mm 1 mps 596 mmHg 96%
    06:00 -3°C° 0 mm 2 mps 596 mmHg 96%
    07:00 -2°C° 0 mm 2 mps 596 mmHg 95%
    08:00 -2°C° 0.1 mm 2 mps 596 mmHg 93%
    09:00 -1°C° 0.1 mm 2 mps 596 mmHg 90%
    10:00 0°C° 0.1 mm 3 mps 597 mmHg 87%
    11:00 -1°C° 0.2 mm 3 mps 596 mmHg 88%
    12:00 -1°C° 0.2 mm 3 mps 596 mmHg 89%
    13:00 -2°C° 0.2 mm 3 mps 595 mmHg 90%
    14:00 -2°C° 0.2 mm 3 mps 595 mmHg 90%
    15:00 -3°C° 0.2 mm 4 mps 595 mmHg 89%
    16:00 -4°C° 0.2 mm 4 mps 594 mmHg 88%
    17:00 -5°C° 0.5 mm 4 mps 594 mmHg 90%
    18:00 -7°C° 0.5 mm 4 mps 594 mmHg 92%
    19:00 -8°C° 0.5 mm 4 mps 595 mmHg 94%
    20:00 -9°C° 0.7 mm 4 mps 595 mmHg 93%
    21:00 -10°C° 0.7 mm 5 mps 595 mmHg 93%
    22:00 -11°C° 0.7 mm 5 mps 596 mmHg 92%
    23:00 -11°C° 0.2 mm 4 mps 596 mmHg 92%

    26 March, Tuesday

    Time Temperature Precipitation Wind Pressure Humidity
    00:00 -11°C° 0.2 mm 4 mps 596 mmHg 91%
    01:00 -12°C° 0.2 mm 3 mps 597 mmHg 90%
    02:00 -12°C° 0.2 mm 4 mps 597 mmHg 90%
    03:00 -12°C° 0.2 mm 4 mps 597 mmHg 90%
    04:00 -12°C° 0.2 mm 4 mps 597 mmHg 90%
    05:00 -10°C° 0.1 mm 3 mps 598 mmHg 90%
    06:00 -10°C° 0.1 mm 3 mps 598 mmHg 89%
    07:00 -10°C° 0.1 mm 3 mps 599 mmHg 89%
    08:00 -10°C° 0.1 mm 3 mps 599 mmHg 83%
    09:00 -9°C° 0.1 mm 3 mps 599 mmHg 77%
    10:00 -8°C° 0.1 mm 3 mps 600 mmHg 72%
    11:00 -7°C° 0 mm 3 mps 600 mmHg 70%
    12:00 -6°C° 0 mm 3 mps 600 mmHg 68%
    13:00 -6°C° 0 mm 3 mps 600 mmHg 66%
    14:00 -6°C° 0 mm 3 mps 600 mmHg 67%
    15:00 -5°C° 0 mm 2 mps 600 mmHg 67%
    16:00 -5°C° 0 mm 2 mps 599 mmHg 67%
    17:00 -6°C° 0 mm 2 mps 599 mmHg 75%
    18:00 -8°C° 0 mm 2 mps 599 mmHg 83%
    19:00 -9°C° 0 mm 1 mps 598 mmHg 90%
    20:00 -9°C° 0 mm 1 mps 599 mmHg 88%
    21:00 -10°C° 0 mm 2 mps 599 mmHg 86%
    22:00 -10°C° 0 mm 2 mps 599 mmHg 85%
    23:00 -10°C° 0 mm 2 mps 599 mmHg 82%

    27 March, Wednesday

    Time Temperature Precipitation Wind Pressure Humidity
    00:00 -10°C° 0 mm 2 mps 599 mmHg 79%
    01:00 -10°C° 0 mm 2 mps 599 mmHg 76%
    02:00 -12°C° 0 mm 2 mps 599 mmHg 74%
    03:00 -12°C° 0 mm 2 mps 599 mmHg 72%
    04:00 -12°C° 0 mm 2 mps 599 mmHg 70%
    05:00 -10°C° 0 mm 2 mps 599 mmHg 68%
    06:00 -10°C° 0 mm 2 mps 599 mmHg 66%
    07:00 -9°C° 0 mm 2 mps 600 mmHg 63%
    08:00 -7°C° 0 mm 2 mps 600 mmHg 59%
    09:00 -5°C° 0 mm 2 mps 601 mmHg 54%
    10:00 -3°C° 0 mm 2 mps 602 mmHg 49%
    11:00 -2°C° 0 mm 2 mps 602 mmHg 52%
    12:00 -2°C° 0 mm 3 mps 602 mmHg 55%
    13:00 -1°C° 0 mm 3 mps 602 mmHg 57%
    14:00 -1°C° 0.1 mm 3 mps 601 mmHg 61%
    15:00 -2°C° 0.1 mm 3 mps 601 mmHg 65%
    16:00 -2°C° 0.1 mm 3 mps 601 mmHg 69%
    17:00 -3°C° 0.1 mm 2 mps 600 mmHg 76%
    18:00 -4°C° 0.1 mm 2 mps 600 mmHg 84%
    19:00 -6°C° 0.1 mm 2 mps 600 mmHg 91%
    20:00 -6°C° 0.1 mm 2 mps 600 mmHg 91%
    21:00 -6°C° 0.1 mm 2 mps 600 mmHg 92%
    22:00 -6°C° 0.1 mm 1 mps 600 mmHg 92%
    23:00 -6°C° 0 mm 1 mps 600 mmHg 92%

    28 March, Thursday

    Time Temperature Precipitation Wind Pressure Humidity
    00:00 -6°C° 0 mm 1 mps 600 mmHg 92%
    01:00 -6°C° 0 mm 1 mps 600 mmHg 92%
    02:00 -7°C° 0 mm 1 mps 600 mmHg 92%
    03:00 -7°C° 0 mm 1 mps 600 mmHg 91%
    04:00 -7°C° 0 mm 1 mps 600 mmHg 91%
    05:00 -6°C° 0 mm 1 mps 600 mmHg 89%
    06:00 -6°C° 0 mm 1 mps 600 mmHg 88%
    07:00 -6°C° 0 mm 1 mps 600 mmHg 86%
    08:00 -3°C° 0 mm 1 mps 601 mmHg 82%
    09:00 -1°C° 0 mm 1 mps 602 mmHg 78%
    10:00 -2°C° 0 mm 2 mps 602 mmHg 73%
    11:00 -1°C° 0.2 mm 2 mps 602 mmHg 74%
    12:00 -1°C° 0.2 mm 2 mps 602 mmHg 75%
    13:00 -1°C° 0.2 mm 2 mps 602 mmHg 76%
    14:00 -1°C° 0.2 mm 2 mps 602 mmHg 77%
    15:00 -1°C° 0.2 mm 2 mps 602 mmHg 77%
    16:00 -1°C° 0.2 mm 2 mps 601 mmHg 78%
    17:00 0°C° 0.1 mm 1 mps 601 mmHg 83%
    18:00 -2°C° 0.1 mm 1 mps 601 mmHg 89%
    19:00 -3°C° 0.1 mm 1 mps 601 mmHg 94%
    20:00 -3°C° 0 mm 1 mps 601 mmHg 94%
    21:00 -4°C° 0 mm 1 mps 601 mmHg 93%
    22:00 -4°C° 0 mm 1 mps 601 mmHg 93%
    23:00 -4°C° 0 mm 1 mps 601 mmHg 92%
    Show more